[[{"header":{"parameterUnit":"m.s-1","parameterCategory":2,"la1":30.2991,"la2":30.254,"lo1":-89.0895,"lo2":-89.0444,"dy":0.0017,"dx":0.0017,"nx":28,"ny":28,"refTime":"2025-12-18T03:00:00:Z","depth":"0","parameterNumber":2,"parameterNumberName":"U-component_of_CURRENTS"},"data":[0,0,0,0,0,0,0,0,0,0,0,0,0,0,0,0,0,0,0,0,0,0,0,0,0,0,0,0,0,0,0,0,0,0,0,0,0,0,0,0,0,0,0,0,0,0,0,0,0,0,0,0,0,0,0,0,0,0,-0.2755,-0.2755,0,-0.279,-0.279,-0.279,-0.2755,-0.2753,-0.2752,-0.2751,-0.2724,-0.2724,-0.2725,0,0,0,0,0,0,0,0,0,0,0,0,0,-0.2665,-0.2667,-0.2755,-0.2756,-0.2756,-0.279,-0.279,-0.279,-0.2755,-0.2753,-0.2752,-0.2751,-0.2724,-0.2724,-0.2725,0,0,0,0,0,0,0,0,0,0,0,0,0,-0.27,-0.2667,-0.2755,-0.2745,-0.2744,-0.279,-0.279,-0.279,-0.2755,-0.2753,-0.2752,-0.275,-0.2724,-0.2724,-0.2725,-0.2762,0,0,-0.2726,-0.2727,0,0,0,0,0,0,0,0,-0.2698,-0.2703,-0.2745,-0.2745,-0.2745,-0.2768,-0.2749,-0.2779,-0.2756,-0.2748,-0.2751,-0.2749,-0.2736,-0.2736,-0.2743,-0.2761,-0.276,-0.2726,-0.2727,-0.2727,-0.2727,0,0,0,0,0,0,0,-0.2696,-0.2701,-0.2766,-0.2746,-0.2746,-0.2741,-0.2744,-0.2754,-0.2748,-0.2749,-0.2747,-0.2756,-0.2735,-0.2743,-0.2742,-0.2759,-0.2726,-0.2727,-0.2727,-0.2727,-0.2793,-0.2794,0,0,0,0,0,0,-0.2699,-0.2699,-0.2765,-0.2767,-0.272,-0.2744,-0.2747,-0.276,-0.2749,-0.2747,-0.2757,-0.2754,-0.2743,-0.2741,-0.2741,-0.2773,-0.2727,-0.2727,-0.2728,-0.2791,-0.2793,-0.2795,0,0,0,0,0,0,-0.2697,-0.2705,-0.2763,-0.2736,-0.2743,-0.2748,-0.2763,-0.2762,-0.2762,-0.2757,-0.2752,-0.2757,-0.2741,-0.274,-0.2752,-0.2772,-0.2728,-0.2728,-0.279,-0.2792,-0.2794,-0.2845,0,0,0,0,0,0,-0.2694,-0.2704,-0.271,-0.2736,-0.2745,-0.2792,-0.2765,-0.2764,-0.2772,-0.2767,-0.2756,-0.2752,-0.274,-0.2752,-0.2753,-0.2772,-0.2728,-0.2788,-0.2791,-0.2793,-0.2842,-0.2849,-0.2855,0,0,0,0,0,-0.2691,-0.2708,-0.271,-0.2718,-0.2755,-0.2794,-0.2798,-0.2793,-0.2773,-0.2783,-0.2775,-0.2752,-0.2769,-0.2754,-0.2754,-0.2774,-0.2786,-0.279,-0.2793,-0.2839,-0.2848,-0.2855,0,0,0,0,0,0,-0.2668,-0.2708,-0.271,-0.2737,-0.2765,-0.2789,-0.2796,-0.2797,-0.28,-0.2789,-0.2773,-0.277,-0.279,-0.2779,-0.2763,-0.2802,-0.2774,-0.2777,-0.2808,-0.2816,-0.2823,-0.2822,-0.2729,0,0,0,0,0,-0.2671,-0.2691,-0.273,-0.2748,-0.2764,-0.278,-0.2792,-0.2796,-0.2807,-0.2805,-0.28,-0.2797,-0.2809,-0.2808,-0.2817,-0.2839,-0.2816,-0.2852,-0.2859,-0.2865,-0.2866,-0.2866,-0.2872,-0.2805,-0.2805,-0.2805,0,0,-0.2664,-0.269,-0.2699,-0.2745,-0.276,-0.2798,-0.2782,-0.2807,-0.2833,-0.2804,-0.2824,-0.2823,-0.2822,-0.2848,-0.2855,-0.2836,-0.2869,-0.2869,-0.2873,-0.2871,-0.287,-0.2876,-0.2882,-0.2807,-0.2807,-0.2807,0,0,-0.2671,-0.2688,-0.2712,-0.2744,-0.2783,-0.2803,-0.2812,-0.2844,-0.2848,-0.2881,-0.2865,-0.2875,-0.2891,-0.2895,-0.2899,-0.2949,-0.2909,-0.2952,-0.2979,-0.298,-0.2985,-0.2989,-0.2951,-0.2951,-0.2949,-0.2949,-0.295,0,-0.2662,-0.27,-0.2724,-0.2763,-0.279,-0.2808,-0.2846,-0.2868,-0.2897,-0.2908,-0.2891,-0.2924,-0.2916,-0.2951,-0.2963,-0.2963,-0.2943,-0.2946,-0.2987,-0.2991,-0.2994,-0.2954,-0.2954,-0.2952,-0.2952,-0.2952,-0.2951,0,-0.2692,-0.2727,-0.2744,-0.28,-0.2836,-0.2869,-0.2914,-0.2939,-0.2946,-0.2963,-0.2996,-0.2994,-0.3006,-0.3013,-0.3001,-0.303,-0.2999,-0.2998,-0.2963,-0.3004,-0.2959,-0.2958,-0.2956,-0.2955,-0.2955,-0.2954,0,0,-0.2654,-0.2748,-0.2751,-0.2783,-0.2858,-0.2886,-0.2944,-0.2996,-0.3018,-0.3045,-0.3067,-0.3096,-0.3081,-0.3085,-0.3075,-0.3075,-0.3072,-0.3045,-0.3044,-0.3,-0.3044,-0.2946,-0.2935,-0.3078,-0.3079,-0.3079,-0.2996,0,-0.2665,-0.2738,-0.2788,-0.2851,-0.289,-0.2942,-0.2993,-0.3042,-0.3069,-0.3094,-0.3105,-0.3121,-0.3114,-0.3109,-0.3115,-0.3085,-0.3074,-0.3092,-0.3017,-0.3014,-0.2917,-0.2933,-0.2826,-0.2737,-0.2994,-0.2994,-0.2994,0,-0.2672,-0.2721,-0.2788,-0.2876,-0.2897,-0.2939,-0.3009,-0.3058,-0.3112,-0.3132,-0.3159,-0.3159,-0.3169,-0.3149,-0.3128,-0.3138,-0.3094,-0.3068,-0.3064,-0.2955,-0.2915,-0.2742,-0.2725,-0.2706,-0.2992,-0.2992,-0.2992,0,-0.2616,-0.2715,-0.2763,-0.2795,-0.2901,-0.2933,-0.2983,-0.3056,-0.3094,-0.3141,-0.3161,-0.3183,-0.3177,-0.3155,-0.3101,-0.3113,-0.3054,-0.3062,-0.2934,-0.2925,-0.2808,-0.2788,-0.2757,-0.3042,-0.3042,-0.3042,-0.3042,0,-0.2602,-0.2634,-0.2736,-0.2758,-0.2808,-0.2895,-0.2945,-0.3001,-0.3074,-0.3106,-0.3159,-0.3174,-0.3181,-0.3151,-0.3102,-0.2999,-0.3052,-0.2931,-0.2902,-0.2821,-0.2803,-0.2761,-0.2788,-0.3039,-0.304,-0.304,-0.3041,0,-0.2525,-0.2598,-0.265,-0.2753,-0.2782,-0.2809,-0.2916,-0.2948,-0.3035,-0.3076,-0.3089,-0.3158,-0.3118,-0.3095,-0.3038,-0.2982,-0.2846,-0.2852,-0.2733,-0.2692,-0.2551,-0.2586,-0.2513,-0.2439,-0.2696,-0.2694,-0.2691,0,-0.2491,-0.2511,-0.2613,-0.2633,-0.2673,-0.2736,-0.2777,-0.2898,-0.2941,-0.3052,-0.3056,-0.3065,-0.3022,-0.291,-0.2822,-0.2701,-0.2722,-0.2546,-0.2558,-0.2519,-0.2538,-0.257,-0.2516,-0.2417,-0.2412,-0.2408,-0.2406,0,-0.2405,-0.2441,-0.2478,-0.2531,-0.2571,-0.2626,-0.2697,-0.2732,-0.2863,-0.2899,-0.2921,-0.2895,-0.2825,-0.2668,-0.2545,-0.2467,-0.2487,-0.2466,-0.2471,-0.2348,-0.2338,-0.2258,-0.2481,-0.2373,-0.2376,-0.2379,-0.2381,-0.2382,-0.2312,-0.2318,-0.2366,-0.2405,-0.2451,-0.248,-0.2475,-0.2555,-0.2588,-0.2613,-0.2704,-0.2634,-0.2571,-0.2376,-0.2291,-0.215,-0.2228,-0.2103,-0.2153,-0.2193,-0.211,-0.2238,-0.2077,-0.2078,-0.208,-0.2081,-0.2082,0,-0.2187,-0.2209,-0.2237,-0.2275,-0.2279,-0.2347,-0.2386,-0.2345,-0.2314,-0.2377,-0.2358,-0.2314,-0.2156,-0.2115,-0.1988,-0.1884,-0.1846,-0.185,-0.1894,-0.1856,-0.1992,-0.1968,-0.1721,-0.1721,-0.1721,-0.1721,-0.1722,-0.1722,-0.2118,-0.2101,-0.213,-0.2094,-0.2113,-0.2029,-0.2015,-0.1943,-0.1943,-0.1867,-0.1885,-0.1926,-0.1932,-0.2062,-0.1908,-0.18,-0.1766,-0.1702,-0.1733,-0.1869,-0.1898,-0.1926,-0.1909,-0.1655,-0.1655,-0.1527,-0.1526,-0.1526]},{"header":{"parameterUnit":"m.s-1","parameterCategory":2,"la1":30.2991,"la2":30.254,"lo1":-89.0895,"lo2":-89.0444,"dy":0.0017,"dx":0.0017,"nx":28,"ny":28,"refTime":"2025-12-18T03:00:00:Z","depth":"0","parameterNumber":3,"parameterNumberName":"V-component_of_CURRENTS"},"data":[0,0,0,0,0,0,0,0,0,0,0,0,0,0,0,0,0,0,0,0,0,0,0,0,0,0,0,0,0,0,0,0,0,0,0,0,0,0,0,0,0,0,0,0,0,0,0,0,0,0,0,0,0,0,0,0,0,0,-0.0182,-0.0181,0,-0.0088,-0.0087,-0.0085,-0.0014,-0.0013,-0.0013,-0.0012,0.0136,0.0139,0.0143,0,0,0,0,0,0,0,0,0,0,0,0,0,-0.0242,-0.0242,-0.0182,-0.0181,-0.018,-0.0088,-0.0086,-0.0085,-0.0014,-0.0013,-0.0013,-0.0012,0.0135,0.0139,0.0143,0,0,0,0,0,0,0,0,0,0,0,0,0,-0.0188,-0.0242,-0.0182,-0.0135,-0.013,-0.0088,-0.0086,-0.0085,-0.0014,-0.0013,-0.0013,-0.0012,0.0133,0.0139,0.0144,0.0162,0,0,0.016,0.0162,0,0,0,0,0,0,0,0,-0.0191,-0.0185,-0.0143,-0.0138,-0.0132,-0.0063,-0.0053,-0.0,-0.0014,-0.0056,-0.0012,-0.0012,0.0073,0.0083,0.0101,0.0169,0.0175,0.016,0.0163,0.0166,0.0167,0,0,0,0,0,0,0,-0.0195,-0.0188,-0.0143,-0.0142,-0.0135,-0.0099,-0.009,-0.0043,0.0006,-0.0052,-0.0047,-0.004,0.0076,0.0096,0.0105,0.0177,0.016,0.0165,0.0168,0.017,0.029,0.029,0,0,0,0,0,0,-0.0214,-0.0192,-0.0146,-0.014,-0.0162,-0.0099,-0.0089,-0.0085,0.0004,0.0017,-0.0041,-0.0037,0.0086,0.0099,0.0111,0.0142,0.0166,0.0171,0.0174,0.029,0.029,0.029,0,0,0,0,0,0,-0.0216,-0.0211,-0.0149,-0.0165,-0.0155,-0.0099,-0.0094,-0.0083,-0.0063,0.0012,0.0027,-0.0032,0.0087,0.0103,0.015,0.0148,0.0173,0.0178,0.029,0.029,0.029,0.0202,0,0,0,0,0,0,-0.0218,-0.0212,-0.0217,-0.0167,-0.0155,-0.0135,-0.0095,-0.0082,-0.0061,-0.0055,0.0024,0.0039,0.0089,0.0142,0.0155,0.0156,0.0182,0.029,0.029,0.029,0.0205,0.0199,0.0194,0,0,0,0,0,-0.022,-0.0234,-0.0218,-0.0212,-0.0163,-0.0136,-0.0126,-0.0082,-0.0062,-0.006,-0.0004,0.0036,0.0153,0.0146,0.0162,0.0164,0.029,0.029,0.029,0.0207,0.02,0.0194,0,0,0,0,0,0,-0.0262,-0.0227,-0.0208,-0.0209,-0.0179,-0.0124,-0.012,-0.009,-0.0045,-0.0037,0.0035,0.0054,0.0094,0.0141,0.0132,0.02,0.0228,0.0232,0.016,0.0154,0.0149,0.013,0.0186,0,0,0,0,0,-0.0276,-0.0276,-0.0234,-0.0235,-0.0224,-0.0174,-0.0157,-0.0129,-0.0082,-0.0062,-0.0007,0.0054,0.0106,0.0138,0.0188,0.0224,0.0283,0.0237,0.0232,0.0227,0.0223,0.0311,0.0313,0.0291,0.0291,0.0291,0,0,-0.0292,-0.0273,-0.0272,-0.0244,-0.0216,-0.0211,-0.0162,-0.0145,-0.0133,-0.0053,-0.0022,0.0033,0.011,0.015,0.0173,0.019,0.0263,0.0227,0.0222,0.0222,0.0312,0.0314,0.0316,0.0291,0.0291,0.0291,0,0,-0.0333,-0.031,-0.0326,-0.0307,-0.0277,-0.0243,-0.0243,-0.0194,-0.0164,-0.013,-0.0068,-0.0014,0.006,0.0118,0.0157,0.0154,0.0227,0.0168,0.0132,0.0217,0.0219,0.0222,0.0292,0.0302,0.0171,0.017,0.017,0,-0.0356,-0.0368,-0.0327,-0.0338,-0.0327,-0.0264,-0.0277,-0.0238,-0.0179,-0.015,-0.0132,-0.0011,0.0048,0.0114,0.0109,0.0142,0.0196,0.0147,0.0209,0.0213,0.0218,0.0289,0.0301,0.0166,0.0167,0.0167,0.0167,0,-0.0406,-0.0416,-0.0425,-0.0415,-0.0398,-0.0399,-0.0344,-0.0317,-0.0274,-0.0224,-0.0157,-0.0074,0.0001,0.0027,0.0066,0.0126,0.0155,0.0186,0.0221,0.0215,0.029,0.0304,0.016,0.0162,0.0163,0.0164,0,0,-0.0457,-0.0462,-0.0464,-0.0477,-0.044,-0.0432,-0.0407,-0.036,-0.0334,-0.0266,-0.0222,-0.0135,-0.0082,-0.0034,0.003,0.01,0.0171,0.0145,0.0151,0.0204,0.035,0.0401,0.0422,0.0213,0.0216,0.0217,0.0386,0,-0.051,-0.0558,-0.0535,-0.0567,-0.0585,-0.0521,-0.0501,-0.0444,-0.0379,-0.0319,-0.0214,-0.015,-0.0105,-0.0068,0.0006,0.0132,0.0206,0.0122,0.0356,0.0363,0.0402,0.0439,0.0485,0.0642,0.04,0.0403,0.0405,0,-0.0566,-0.0591,-0.0642,-0.0645,-0.0644,-0.0645,-0.0593,-0.0566,-0.0456,-0.0402,-0.0312,-0.0222,-0.0112,-0.0074,0.0136,0.008,0.0201,0.03,0.031,0.0398,0.0441,0.0613,0.0678,0.0846,0.0427,0.0425,0.0424,0,-0.063,-0.0662,-0.0707,-0.071,-0.07,-0.0698,-0.0679,-0.0592,-0.0561,-0.0447,-0.0402,-0.0257,-0.0173,-0.0013,0.0187,0.0166,0.0428,0.0433,0.0597,0.0601,0.0708,0.0719,0.0958,0.0589,0.0589,0.0589,0.0588,0,-0.0697,-0.0731,-0.0745,-0.0771,-0.0809,-0.0768,-0.077,-0.0721,-0.0638,-0.0589,-0.0454,-0.037,-0.0152,0.0027,0.0189,0.0444,0.044,0.0603,0.0658,0.0678,0.0683,0.0889,0.0943,0.0595,0.0594,0.0592,0.0591,0,-0.0763,-0.0772,-0.0829,-0.0842,-0.0847,-0.0872,-0.0851,-0.0839,-0.075,-0.0679,-0.0643,-0.0436,-0.0194,0.0036,0.0326,0.046,0.081,0.0782,0.0782,0.0833,0.1109,0.1155,0.1446,0.1558,0.0977,0.0979,0.0981,0,-0.0803,-0.0842,-0.0894,-0.093,-0.0943,-0.0966,-0.0975,-0.0908,-0.0881,-0.0706,-0.0671,-0.042,-0.0214,0.0221,0.0513,0.0828,0.0955,0.1041,0.1009,0.115,0.1242,0.1271,0.1345,0.1118,0.1121,0.1123,0.1125,0,-0.0875,-0.0893,-0.0939,-0.1019,-0.1054,-0.1084,-0.1084,-0.1081,-0.0971,-0.0867,-0.0671,-0.0484,-0.0048,0.0348,0.0749,0.0936,0.117,0.1099,0.1268,0.1395,0.1423,0.1547,0.0963,0.1147,0.1145,0.1143,0.1142,0.1141,-0.0916,-0.097,-0.103,-0.1097,-0.1142,-0.1175,-0.1158,-0.1131,-0.1054,-0.0847,-0.0682,-0.0335,0.0198,0.0783,0.0993,0.143,0.1379,0.1553,0.1604,0.1625,0.172,0.1169,0.1394,0.1393,0.1392,0.1392,0.1391,0,-0.0958,-0.1017,-0.1099,-0.1163,-0.1192,-0.1202,-0.1195,-0.1116,-0.0994,-0.0799,-0.0554,0.0075,0.0604,0.1083,0.1674,0.1913,0.1964,0.2035,0.2097,0.2153,0.1705,0.1698,0.1971,0.1971,0.197,0.197,0.197,0.197,-0.098,-0.1067,-0.1111,-0.1171,-0.1194,-0.1148,-0.1113,-0.1001,-0.0835,-0.0443,-0.0074,0.0217,0.0877,0.1772,0.2313,0.237,0.2574,0.2565,0.2671,0.2356,0.2314,0.2274,0.2284,0.2675,0.2676,0.3114,0.3118,0.3121]}],[{"header":{"parameterUnit":"m.s-1","parameterCategory":2,"la1":30.2991,"la2":30.254,"lo1":-89.0895,"lo2":-89.0444,"dy":0.0017,"dx":0.0017,"nx":28,"ny":28,"refTime":"2025-12-18T03:00:00:Z","depth":"2","parameterNumber":2,"parameterNumberName":"U-component_of_CURRENTS"},"data":[0,0,0,0,0,0,0,0,0,0,0,0,0,0,0,0,0,0,0,0,0,0,0,0,0,0,0,0,0,0,0,0,0,0,0,0,0,0,0,0,0,0,0,0,0,0,0,0,0,0,0,0,0,0,0,0,0,0,-0.2473,-0.2473,0,-0.2507,-0.2507,-0.2507,-0.2482,-0.2481,-0.248,-0.2479,-0.2462,-0.2463,-0.2463,0,0,0,0,0,0,0,0,0,0,0,0,0,-0.2396,-0.2397,-0.2473,-0.2473,-0.2474,-0.2507,-0.2507,-0.2507,-0.2482,-0.2481,-0.248,-0.2479,-0.2462,-0.2463,-0.2463,0,0,0,0,0,0,0,0,0,0,0,0,0,-0.2427,-0.2398,-0.2473,-0.2467,-0.2467,-0.2507,-0.2507,-0.2507,-0.2482,-0.2481,-0.2479,-0.2478,-0.2462,-0.2463,-0.2463,-0.2493,0,0,-0.2465,-0.2465,0,0,0,0,0,0,0,0,-0.2425,-0.243,-0.2467,-0.2468,-0.2468,-0.2491,-0.2474,-0.2501,-0.2482,-0.2474,-0.2479,-0.2478,-0.247,-0.247,-0.2476,-0.2492,-0.2492,-0.2465,-0.2465,-0.2465,-0.2466,0,0,0,0,0,0,0,-0.2423,-0.2428,-0.2484,-0.2468,-0.2468,-0.2467,-0.2469,-0.2479,-0.2476,-0.2475,-0.2473,-0.2481,-0.2469,-0.2476,-0.2475,-0.2491,-0.2465,-0.2465,-0.2466,-0.2466,-0.2529,-0.253,0,0,0,0,0,0,-0.2425,-0.2426,-0.2483,-0.2485,-0.2446,-0.2469,-0.2472,-0.2483,-0.2477,-0.2476,-0.2483,-0.248,-0.2475,-0.2475,-0.2475,-0.2512,-0.2465,-0.2466,-0.2466,-0.2528,-0.2529,-0.2531,0,0,0,0,0,0,-0.2424,-0.243,-0.2481,-0.2458,-0.2464,-0.2472,-0.2484,-0.2484,-0.2488,-0.2484,-0.2481,-0.2486,-0.2474,-0.2474,-0.2489,-0.2511,-0.2466,-0.2467,-0.2526,-0.2528,-0.253,-0.2586,0,0,0,0,0,0,-0.2421,-0.2429,-0.2436,-0.2458,-0.2466,-0.2509,-0.2486,-0.2486,-0.2497,-0.2494,-0.2487,-0.2484,-0.2473,-0.2488,-0.2489,-0.2511,-0.2467,-0.2524,-0.2527,-0.2529,-0.2582,-0.2589,-0.2596,0,0,0,0,0,-0.2418,-0.2434,-0.2436,-0.2443,-0.2475,-0.251,-0.2514,-0.2513,-0.2498,-0.2509,-0.2504,-0.2484,-0.2504,-0.249,-0.2491,-0.2513,-0.2523,-0.2526,-0.2529,-0.2579,-0.2588,-0.2595,0,0,0,0,0,0,-0.2401,-0.2434,-0.2436,-0.246,-0.2485,-0.2507,-0.2515,-0.2518,-0.2524,-0.2517,-0.2503,-0.2502,-0.2524,-0.2514,-0.2498,-0.254,-0.251,-0.2514,-0.2548,-0.2556,-0.2563,-0.2557,-0.2468,0,0,0,0,0,-0.2404,-0.2421,-0.2455,-0.2471,-0.2486,-0.2502,-0.2514,-0.2519,-0.253,-0.2531,-0.2529,-0.2529,-0.2541,-0.2543,-0.2551,-0.2574,-0.2553,-0.2589,-0.2596,-0.2602,-0.2599,-0.2601,-0.2607,-0.2541,-0.2541,-0.2541,0,0,-0.24,-0.2421,-0.2429,-0.2469,-0.2484,-0.2518,-0.2504,-0.253,-0.2555,-0.253,-0.2554,-0.2555,-0.2554,-0.2581,-0.259,-0.2572,-0.2608,-0.2606,-0.261,-0.2604,-0.2604,-0.2611,-0.2616,-0.2543,-0.2542,-0.2542,0,0,-0.2408,-0.2423,-0.2443,-0.2472,-0.2507,-0.2526,-0.2536,-0.2566,-0.2573,-0.2606,-0.2594,-0.2607,-0.2625,-0.2629,-0.2633,-0.2683,-0.2647,-0.2686,-0.2712,-0.2715,-0.272,-0.2724,-0.2696,-0.2697,-0.2686,-0.2686,-0.2686,0,-0.2402,-0.2433,-0.2454,-0.2489,-0.2513,-0.2532,-0.2566,-0.2588,-0.2618,-0.263,-0.2619,-0.2653,-0.2649,-0.2683,-0.2696,-0.2698,-0.268,-0.2681,-0.2722,-0.2726,-0.273,-0.27,-0.27,-0.2689,-0.2689,-0.2689,-0.2688,0,-0.2428,-0.2459,-0.2474,-0.2523,-0.2556,-0.2587,-0.2629,-0.2655,-0.2666,-0.2684,-0.272,-0.2722,-0.2736,-0.2745,-0.2733,-0.2763,-0.2736,-0.2733,-0.2699,-0.2739,-0.2706,-0.2705,-0.2694,-0.2692,-0.2692,-0.2691,0,0,-0.2396,-0.2477,-0.2481,-0.2509,-0.2577,-0.2602,-0.2657,-0.2706,-0.2729,-0.276,-0.2785,-0.2815,-0.2807,-0.281,-0.2804,-0.2805,-0.281,-0.2777,-0.2776,-0.2743,-0.2792,-0.2704,-0.2694,-0.2814,-0.2815,-0.2815,-0.2755,0,-0.2407,-0.2469,-0.2513,-0.257,-0.2604,-0.2653,-0.27,-0.2747,-0.2777,-0.2806,-0.2822,-0.2842,-0.2836,-0.2836,-0.2843,-0.2819,-0.2813,-0.2824,-0.2762,-0.276,-0.2672,-0.2693,-0.2496,-0.242,-0.2754,-0.2754,-0.2754,0,-0.2412,-0.2454,-0.2512,-0.259,-0.2609,-0.2649,-0.2715,-0.276,-0.2817,-0.2839,-0.2871,-0.2876,-0.2892,-0.2874,-0.2862,-0.2868,-0.2832,-0.281,-0.2807,-0.2703,-0.2671,-0.2437,-0.2406,-0.2753,-0.2753,-0.2753,-0.2753,0,-0.2361,-0.2449,-0.249,-0.2518,-0.2613,-0.2644,-0.269,-0.276,-0.2796,-0.2848,-0.287,-0.2899,-0.2901,-0.2885,-0.2845,-0.2852,-0.281,-0.2814,-0.2701,-0.2694,-0.2501,-0.2476,-0.2797,-0.2797,-0.2798,-0.2798,-0.2798,0,-0.2346,-0.2375,-0.2467,-0.2486,-0.2531,-0.2609,-0.2657,-0.271,-0.278,-0.2809,-0.2869,-0.2885,-0.2904,-0.2888,-0.2849,-0.2764,-0.2814,-0.2698,-0.2676,-0.2514,-0.2492,-0.2764,-0.2761,-0.2795,-0.2796,-0.2796,-0.2797,0,-0.2277,-0.2342,-0.2387,-0.248,-0.2506,-0.2532,-0.2629,-0.2656,-0.2742,-0.2779,-0.2795,-0.2868,-0.2844,-0.284,-0.2799,-0.2752,-0.2689,-0.2643,-0.2438,-0.2392,-0.2567,-0.2568,-0.2513,-0.251,-0.2507,-0.2504,-0.2502,0,-0.2246,-0.2262,-0.2352,-0.2369,-0.2406,-0.2463,-0.2497,-0.2609,-0.2643,-0.2752,-0.2751,-0.2777,-0.2743,-0.2667,-0.259,-0.2496,-0.2591,-0.2274,-0.226,-0.2556,-0.254,-0.2545,-0.255,-0.202,-0.2014,-0.2009,-0.2006,0,-0.2167,-0.2199,-0.2231,-0.2269,-0.2304,-0.2349,-0.2409,-0.2434,-0.2552,-0.2585,-0.2603,-0.2587,-0.2545,-0.2366,-0.2279,-0.2205,-0.2278,-0.2173,-0.2528,-0.2133,-0.2089,-0.2074,-0.2095,-0.1963,-0.1967,-0.197,-0.1972,-0.1974,-0.2087,-0.2087,-0.2122,-0.2142,-0.2181,-0.2193,-0.2172,-0.2243,-0.2259,-0.2265,-0.2366,-0.2274,-0.2269,-0.202,-0.1915,-0.1843,-0.2,-0.1914,-0.193,-0.195,-0.1914,-0.1869,-0.1692,-0.1695,-0.1697,-0.1699,-0.1701,0,-0.197,-0.1977,-0.1991,-0.2004,-0.1974,-0.2047,-0.2069,-0.2009,-0.1956,-0.2003,-0.198,-0.1772,-0.1657,-0.166,-0.1478,-0.1446,-0.144,-0.1391,-0.1386,-0.1428,-0.1466,-0.1407,-0.105,-0.1048,-0.1046,-0.1044,0,0,-0.1907,-0.1866,-0.1869,-0.1776,-0.1778,-0.1679,-0.1646,-0.1589,-0.1574,-0.1478,-0.1437,-0.1555,-0.1595,-0.132,-0.126,-0.1124,-0.1262,-0.1066,-0.1585,-0.1619,-0.1655,-0.1761,-0.1717,0,0,0,0,0]},{"header":{"parameterUnit":"m.s-1","parameterCategory":2,"la1":30.2991,"la2":30.254,"lo1":-89.0895,"lo2":-89.0444,"dy":0.0017,"dx":0.0017,"nx":28,"ny":28,"refTime":"2025-12-18T03:00:00:Z","depth":"2","parameterNumber":3,"parameterNumberName":"V-component_of_CURRENTS"},"data":[0,0,0,0,0,0,0,0,0,0,0,0,0,0,0,0,0,0,0,0,0,0,0,0,0,0,0,0,0,0,0,0,0,0,0,0,0,0,0,0,0,0,0,0,0,0,0,0,0,0,0,0,0,0,0,0,0,0,-0.0231,-0.023,0,-0.0149,-0.0148,-0.0147,-0.0087,-0.0086,-0.0086,-0.0086,0.0042,0.0045,0.0048,0,0,0,0,0,0,0,0,0,0,0,0,0,-0.0281,-0.028,-0.0231,-0.023,-0.0229,-0.0149,-0.0148,-0.0147,-0.0087,-0.0086,-0.0086,-0.0085,0.0041,0.0045,0.0049,0,0,0,0,0,0,0,0,0,0,0,0,0,-0.0233,-0.028,-0.0231,-0.0191,-0.0186,-0.0149,-0.0148,-0.0146,-0.0087,-0.0086,-0.0086,-0.0085,0.004,0.0045,0.0049,0.0067,0,0,0.0063,0.0065,0,0,0,0,0,0,0,0,-0.0236,-0.0232,-0.0198,-0.0193,-0.0189,-0.0129,-0.0119,-0.0073,-0.0087,-0.0123,-0.0086,-0.0085,-0.0012,-0.0003,0.0013,0.0073,0.0078,0.0064,0.0066,0.0068,0.007,0,0,0,0,0,0,0,-0.024,-0.0234,-0.0197,-0.0197,-0.0191,-0.0158,-0.0151,-0.0109,-0.0069,-0.012,-0.0116,-0.0109,-0.0009,0.0008,0.0016,0.008,0.0063,0.0068,0.007,0.0072,0.018,0.018,0,0,0,0,0,0,-0.0257,-0.0238,-0.0199,-0.0194,-0.0214,-0.0158,-0.015,-0.0147,-0.0071,-0.0059,-0.011,-0.0107,-0.0,0.0011,0.0021,0.005,0.0068,0.0073,0.0075,0.018,0.018,0.018,0,0,0,0,0,0,-0.0258,-0.0254,-0.0202,-0.0215,-0.0207,-0.0159,-0.0155,-0.0146,-0.0128,-0.0064,-0.0051,-0.0102,0.0001,0.0015,0.0056,0.0055,0.0075,0.0079,0.018,0.018,0.018,0.0105,0,0,0,0,0,0,-0.026,-0.0255,-0.026,-0.0217,-0.0207,-0.0189,-0.0156,-0.0145,-0.0126,-0.0122,-0.0053,-0.0041,0.0002,0.0049,0.0061,0.0062,0.0082,0.018,0.018,0.018,0.0107,0.0102,0.0098,0,0,0,0,0,-0.0262,-0.0274,-0.0261,-0.0256,-0.0214,-0.0189,-0.0181,-0.0144,-0.0127,-0.0125,-0.0076,-0.0043,0.0059,0.0053,0.0067,0.0069,0.018,0.018,0.018,0.0109,0.0103,0.0099,0,0,0,0,0,0,-0.0297,-0.0268,-0.0252,-0.0254,-0.0228,-0.018,-0.0176,-0.015,-0.011,-0.0105,-0.0042,-0.0027,0.0008,0.005,0.0041,0.0101,0.0125,0.0128,0.0067,0.0062,0.0057,0.0042,0.0086,0,0,0,0,0,-0.0309,-0.031,-0.0274,-0.0275,-0.0266,-0.0222,-0.0208,-0.0183,-0.0143,-0.0125,-0.0078,-0.0025,0.002,0.0048,0.0091,0.0125,0.0171,0.0136,0.0132,0.0128,0.0126,0.0194,0.0195,0.0181,0.0181,0.0181,0,0,-0.0323,-0.0307,-0.0307,-0.0283,-0.0259,-0.0254,-0.0212,-0.0197,-0.0186,-0.0117,-0.009,-0.0042,0.0024,0.006,0.008,0.0095,0.0156,0.0128,0.0124,0.0124,0.0194,0.0195,0.0197,0.0181,0.0181,0.0181,0,0,-0.0358,-0.0339,-0.0353,-0.0336,-0.0309,-0.0281,-0.0281,-0.0238,-0.0212,-0.0182,-0.0129,-0.0082,-0.0017,0.0034,0.0068,0.0067,0.0125,0.0079,0.0051,0.0116,0.0118,0.012,0.0174,0.0181,0.0082,0.0082,0.0082,0,-0.0377,-0.0389,-0.0353,-0.0361,-0.0354,-0.0299,-0.0311,-0.0277,-0.0225,-0.0202,-0.0184,-0.0079,-0.0027,0.003,0.0029,0.0057,0.0099,0.0062,0.0109,0.0112,0.0116,0.0171,0.018,0.0078,0.0079,0.0079,0.0079,0,-0.0419,-0.0429,-0.0436,-0.0428,-0.0413,-0.0415,-0.0368,-0.0345,-0.0308,-0.0267,-0.0209,-0.0134,-0.007,-0.0045,-0.0008,0.0041,0.0064,0.009,0.0118,0.0112,0.0171,0.0182,0.0073,0.0074,0.0076,0.0076,0,0,-0.0463,-0.0468,-0.047,-0.0484,-0.0451,-0.0446,-0.0425,-0.0388,-0.0371,-0.0307,-0.0274,-0.0191,-0.0145,-0.0103,-0.0044,0.0016,0.0072,0.0055,0.006,0.0099,0.021,0.0233,0.0248,0.0104,0.0106,0.0107,0.0239,0,-0.0508,-0.0551,-0.0531,-0.0562,-0.0579,-0.0526,-0.0511,-0.0465,-0.0412,-0.0364,-0.0268,-0.0215,-0.0167,-0.0135,-0.007,0.0037,0.0099,0.0034,0.0218,0.0224,0.0238,0.0261,0.022,0.0335,0.025,0.0252,0.0253,0,-0.0557,-0.058,-0.0626,-0.0635,-0.0636,-0.0639,-0.0603,-0.0582,-0.0492,-0.0447,-0.0369,-0.0291,-0.0192,-0.0152,0.0026,-0.0019,0.0084,0.017,0.0178,0.0234,0.0268,0.0331,0.0359,0.0272,0.0271,0.0269,0.0268,0,-0.0614,-0.0645,-0.0687,-0.0691,-0.0687,-0.069,-0.0677,-0.0608,-0.0589,-0.0494,-0.0461,-0.0334,-0.0261,-0.0123,0.0052,0.0041,0.0253,0.0265,0.0387,0.0389,0.041,0.0411,0.0395,0.0394,0.0394,0.0394,0.0393,0,-0.0673,-0.0706,-0.0721,-0.0746,-0.0787,-0.0753,-0.0767,-0.0728,-0.0665,-0.0636,-0.0513,-0.0451,-0.0249,-0.0102,0.0044,0.025,0.0252,0.0389,0.043,0.0382,0.0379,0.0368,0.0363,0.0399,0.0398,0.0397,0.0396,0,-0.0732,-0.0741,-0.0796,-0.0813,-0.0821,-0.0849,-0.0844,-0.0843,-0.0771,-0.0728,-0.0699,-0.0526,-0.0328,-0.0122,0.0126,0.0245,0.0436,0.051,0.0433,0.0463,0.0527,0.0517,0.0652,0.0654,0.0656,0.0658,0.0659,0,-0.0768,-0.0803,-0.0857,-0.0894,-0.0908,-0.0938,-0.0953,-0.0905,-0.0894,-0.0769,-0.0748,-0.0546,-0.0389,-0.0024,0.0227,0.0496,0.0502,0.0609,0.0585,0.053,0.0557,0.0544,0.0532,0.0583,0.0584,0.0584,0.0585,0,-0.0833,-0.0852,-0.0896,-0.0976,-0.1016,-0.1054,-0.1066,-0.1075,-0.0998,-0.093,-0.0795,-0.0656,-0.03,-0.0003,0.0341,0.0491,0.0557,0.0625,0.0613,0.0515,0.0474,0.0497,0.0486,0.0588,0.0588,0.0588,0.0587,0.0587,-0.0874,-0.0924,-0.0983,-0.1054,-0.1105,-0.1149,-0.1171,-0.115,-0.1112,-0.0985,-0.0844,-0.0599,-0.0318,0.0176,0.0413,0.0635,0.0633,0.0686,0.0681,0.0677,0.0636,0.0599,0.0729,0.073,0.073,0.0731,0.0731,0,-0.0922,-0.0977,-0.1055,-0.1135,-0.1198,-0.1203,-0.1226,-0.1206,-0.1148,-0.0989,-0.082,-0.0486,-0.0147,0.0151,0.0501,0.0703,0.0684,0.0734,0.0663,0.0658,0.0655,0.061,0.0698,0.0699,0.0699,0.07,0,0,-0.0948,-0.1031,-0.1073,-0.1187,-0.1242,-0.1288,-0.1295,-0.1232,-0.1115,-0.0943,-0.0749,-0.0495,-0.0133,0.0105,0.0359,0.0541,0.0546,0.0557,0.0561,0.0443,0.0436,0.0605,0.0529,0,0,0,0,0]}],[{"header":{"parameterUnit":"m.s-1","parameterCategory":2,"la1":30.2991,"la2":30.254,"lo1":-89.0895,"lo2":-89.0444,"dy":0.0017,"dx":0.0017,"nx":28,"ny":28,"refTime":"2025-12-18T03:00:00:Z","depth":"4","parameterNumber":2,"parameterNumberName":"U-component_of_CURRENTS"},"data":[0,0,0,0,0,0,0,0,0,0,0,0,0,0,0,0,0,0,0,0,0,0,0,0,0,0,0,0,0,0,0,0,0,0,0,0,0,0,0,0,0,0,0,0,0,0,0,0,0,0,0,0,0,0,0,0,0,0,-0.1752,-0.1753,0,-0.1819,-0.1819,-0.182,-0.1856,-0.1856,-0.1857,-0.1857,-0.1912,-0.1913,-0.1914,0,0,0,0,0,0,0,0,0,0,0,0,0,-0.1659,-0.166,-0.1752,-0.1753,-0.1754,-0.1819,-0.1819,-0.182,-0.1856,-0.1856,-0.1857,-0.1857,-0.1911,-0.1913,-0.1914,0,0,0,0,0,0,0,0,0,0,0,0,0,-0.1708,-0.1661,-0.1752,-0.1781,-0.1784,-0.1818,-0.1819,-0.182,-0.1856,-0.1856,-0.1857,-0.1857,-0.1911,-0.1913,-0.1915,-0.1918,0,0,-0.192,-0.1921,0,0,0,0,0,0,0,0,-0.1705,-0.1711,-0.1776,-0.1779,-0.1783,-0.1831,-0.1807,-0.1853,-0.1856,-0.1827,-0.1857,-0.1857,-0.1885,-0.1889,-0.1898,-0.1921,-0.1923,-0.192,-0.1921,-0.1922,-0.1923,0,0,0,0,0,0,0,-0.1702,-0.1709,-0.1776,-0.1777,-0.1781,-0.1792,-0.1799,-0.1816,-0.1851,-0.183,-0.1833,-0.1843,-0.1886,-0.1896,-0.19,-0.1924,-0.192,-0.1922,-0.1923,-0.1924,-0.2027,-0.2028,0,0,0,0,0,0,-0.1697,-0.1706,-0.1774,-0.1779,-0.1746,-0.1794,-0.1802,-0.1814,-0.1851,-0.1858,-0.1843,-0.1844,-0.1893,-0.1897,-0.1902,-0.1981,-0.1922,-0.1924,-0.1925,-0.2025,-0.2027,-0.2029,0,0,0,0,0,0,-0.1695,-0.1702,-0.1772,-0.1745,-0.1755,-0.1795,-0.1808,-0.1815,-0.1854,-0.1862,-0.1868,-0.1878,-0.1893,-0.1899,-0.1946,-0.1981,-0.1925,-0.1926,-0.2023,-0.2026,-0.2028,-0.2094,0,0,0,0,0,0,-0.1692,-0.1701,-0.1723,-0.1745,-0.1756,-0.1812,-0.1808,-0.1816,-0.1858,-0.1862,-0.1893,-0.1897,-0.1894,-0.1943,-0.1947,-0.1982,-0.1928,-0.2021,-0.2024,-0.2027,-0.209,-0.2098,-0.2106,0,0,0,0,0,-0.1688,-0.1711,-0.1723,-0.1733,-0.178,-0.1814,-0.1821,-0.1849,-0.186,-0.1884,-0.1908,-0.1898,-0.1965,-0.1946,-0.1951,-0.1987,-0.202,-0.2023,-0.2027,-0.2086,-0.2097,-0.2105,0,0,0,0,0,0,-0.1684,-0.1718,-0.1732,-0.1765,-0.1798,-0.1821,-0.185,-0.1867,-0.1905,-0.1917,-0.192,-0.1927,-0.198,-0.1975,-0.1954,-0.2026,-0.199,-0.1995,-0.2034,-0.2043,-0.2051,-0.2041,-0.1929,0,0,0,0,0,-0.1692,-0.1719,-0.1751,-0.1781,-0.18,-0.1831,-0.1854,-0.1875,-0.1905,-0.1923,-0.1947,-0.197,-0.1994,-0.2013,-0.2032,-0.2073,-0.205,-0.2099,-0.2107,-0.2114,-0.2109,-0.2113,-0.2121,-0.2041,-0.2041,-0.2041,0,0,-0.1699,-0.1722,-0.1739,-0.1783,-0.181,-0.1846,-0.1846,-0.1892,-0.1929,-0.1922,-0.1987,-0.2003,-0.2012,-0.2059,-0.2082,-0.2063,-0.2125,-0.2118,-0.2124,-0.2115,-0.2118,-0.2125,-0.2132,-0.2043,-0.2043,-0.2042,0,0,-0.1717,-0.1748,-0.1776,-0.1807,-0.1857,-0.1877,-0.1898,-0.1942,-0.1973,-0.203,-0.2035,-0.2072,-0.2116,-0.2126,-0.2135,-0.2199,-0.2168,-0.2212,-0.2245,-0.225,-0.2256,-0.2261,-0.2241,-0.2243,-0.2215,-0.2215,-0.2215,0,-0.1728,-0.1763,-0.179,-0.1826,-0.1858,-0.1895,-0.1934,-0.197,-0.2028,-0.2054,-0.2063,-0.2133,-0.2144,-0.2188,-0.221,-0.2217,-0.2204,-0.2208,-0.2259,-0.2264,-0.2268,-0.2245,-0.2247,-0.2219,-0.2218,-0.2218,-0.2217,0,-0.1755,-0.1799,-0.182,-0.1875,-0.1915,-0.1956,-0.2005,-0.2054,-0.2096,-0.2125,-0.2192,-0.2213,-0.2247,-0.2264,-0.2258,-0.23,-0.2276,-0.2269,-0.2231,-0.228,-0.2253,-0.2254,-0.2224,-0.2222,-0.2221,-0.222,0,0,-0.1733,-0.1822,-0.1833,-0.1868,-0.1946,-0.1975,-0.2048,-0.2109,-0.215,-0.2214,-0.2259,-0.2313,-0.2323,-0.2332,-0.2337,-0.2345,-0.2365,-0.2323,-0.2322,-0.2296,-0.236,-0.2205,-0.219,-0.237,-0.237,-0.2371,-0.2328,0,-0.1748,-0.1815,-0.1862,-0.1935,-0.1971,-0.2035,-0.2092,-0.2156,-0.221,-0.2263,-0.2299,-0.2344,-0.235,-0.2369,-0.2383,-0.2369,-0.2371,-0.2376,-0.2322,-0.232,-0.2171,-0.2188,-0.2373,-0.2329,-0.2329,-0.2329,-0.2329,0,-0.175,-0.1797,-0.1869,-0.1959,-0.1982,-0.2037,-0.2127,-0.2184,-0.2263,-0.2303,-0.2358,-0.2381,-0.2418,-0.2408,-0.2415,-0.242,-0.2395,-0.2379,-0.2377,-0.2206,-0.2166,-0.2271,-0.233,-0.233,-0.233,-0.233,-0.233,0,-0.1696,-0.1798,-0.1855,-0.1888,-0.1996,-0.2047,-0.2108,-0.2198,-0.2243,-0.2326,-0.2358,-0.241,-0.2431,-0.2428,-0.2408,-0.2416,-0.2388,-0.2392,-0.2229,-0.2217,-0.2341,-0.2336,-0.2386,-0.2386,-0.2386,-0.2386,-0.2386,0,-0.1669,-0.1718,-0.184,-0.1868,-0.1936,-0.2025,-0.2099,-0.2166,-0.2251,-0.2282,-0.2371,-0.2383,-0.2439,-0.2434,-0.241,-0.2307,-0.2392,-0.2222,-0.2194,-0.237,-0.2369,-0.2341,-0.2337,-0.2384,-0.2385,-0.2385,-0.2385,0,-0.1593,-0.1677,-0.1746,-0.187,-0.1912,-0.196,-0.2084,-0.2119,-0.2223,-0.2264,-0.2289,-0.2369,-0.2352,-0.2375,-0.2353,-0.2285,-0.2218,-0.2162,-0.2333,-0.2317,-0.2044,-0.2044,-0.1969,-0.1963,-0.1959,-0.1954,-0.1951,0,-0.1555,-0.1585,-0.1725,-0.176,-0.1822,-0.1911,-0.1956,-0.2084,-0.2112,-0.2223,-0.2212,-0.2254,-0.2281,-0.2119,-0.217,-0.2102,-0.2083,-0.2038,-0.2054,-0.202,-0.2001,-0.2009,-0.2015,-0.1943,-0.1942,-0.194,-0.1939,0,-0.1472,-0.1538,-0.1591,-0.1663,-0.1727,-0.1786,-0.1863,-0.1869,-0.1988,-0.2109,-0.2063,-0.2045,-0.202,-0.1997,-0.1956,-0.1915,-0.2063,-0.1986,-0.1996,-0.2011,-0.1987,-0.1975,-0.1987,-0.1922,-0.1924,-0.1926,-0.1927,0,-0.1407,-0.142,-0.1493,-0.1538,-0.1612,-0.1618,-0.1688,-0.1705,-0.1751,-0.1879,-0.1853,-0.19,-0.1982,-0.1897,-0.1859,-0.1805,-0.1785,-0.173,-0.1754,-0.1774,-0.1731,-0.1673,-0.1473,0,0,0,0,0,-0.1328,-0.1319,-0.1354,-0.1393,-0.1457,-0.1491,-0.1595,-0.1664,-0.1786,-0.1695,-0.1769,-0.1732,-0.1682,-0.1715,-0.1615,-0.1779,-0.1797,-0.1658,-0.175,-0.1826,-0.1846,-0.1815,0,0,0,0,0,0,-0.1273,-0.13,-0.1302,-0.1251,-0.1242,-0.1291,-0.1344,-0.1434,-0.1398,-0.153,-0.1506,-0.1614,-0.1588,-0.1694,-0.1571,-0.1581,-0.16,-0.1704,-0.1699,-0.1814,-0.1833,-0.1849,-0.1824,0,0,0,0,0]},{"header":{"parameterUnit":"m.s-1","parameterCategory":2,"la1":30.2991,"la2":30.254,"lo1":-89.0895,"lo2":-89.0444,"dy":0.0017,"dx":0.0017,"nx":28,"ny":28,"refTime":"2025-12-18T03:00:00:Z","depth":"4","parameterNumber":3,"parameterNumberName":"V-component_of_CURRENTS"},"data":[0,0,0,0,0,0,0,0,0,0,0,0,0,0,0,0,0,0,0,0,0,0,0,0,0,0,0,0,0,0,0,0,0,0,0,0,0,0,0,0,0,0,0,0,0,0,0,0,0,0,0,0,0,0,0,0,0,0,-0.0172,-0.0172,0,-0.0118,-0.0117,-0.0117,-0.0077,-0.0077,-0.0077,-0.0077,0.0019,0.0021,0.0024,0,0,0,0,0,0,0,0,0,0,0,0,0,-0.0199,-0.0199,-0.0172,-0.0172,-0.0171,-0.0118,-0.0117,-0.0116,-0.0077,-0.0077,-0.0077,-0.0076,0.0018,0.0021,0.0024,0,0,0,0,0,0,0,0,0,0,0,0,0,-0.0169,-0.0199,-0.0172,-0.0146,-0.0144,-0.0118,-0.0117,-0.0116,-0.0077,-0.0077,-0.0077,-0.0076,0.0017,0.0021,0.0024,0.0041,0,0,0.0035,0.0037,0,0,0,0,0,0,0,0,-0.0171,-0.0168,-0.0151,-0.0148,-0.0145,-0.0105,-0.0092,-0.0062,-0.0077,-0.0101,-0.0077,-0.0076,-0.002,-0.0013,-0.0002,0.0045,0.0049,0.0036,0.0038,0.0039,0.004,0,0,0,0,0,0,0,-0.0173,-0.017,-0.0149,-0.015,-0.0147,-0.0123,-0.0119,-0.0086,-0.0061,-0.0099,-0.0096,-0.0093,-0.0018,-0.0006,0.0001,0.0051,0.0035,0.0039,0.0041,0.0042,0.0128,0.0129,0,0,0,0,0,0,-0.0185,-0.0172,-0.0151,-0.0148,-0.0159,-0.0123,-0.0118,-0.0117,-0.0062,-0.0054,-0.0093,-0.0091,-0.0012,-0.0004,0.0004,0.0026,0.0039,0.0043,0.0045,0.0128,0.0128,0.0129,0,0,0,0,0,0,-0.0186,-0.0184,-0.0153,-0.016,-0.0154,-0.0123,-0.0122,-0.0116,-0.0106,-0.0058,-0.0049,-0.0089,-0.0011,-0.0001,0.0031,0.003,0.0044,0.0047,0.0128,0.0128,0.0129,0.0069,0,0,0,0,0,0,-0.0187,-0.0185,-0.019,-0.0161,-0.0154,-0.0145,-0.0123,-0.0116,-0.0105,-0.0102,-0.0052,-0.0043,-0.001,0.0025,0.0034,0.0035,0.005,0.0128,0.0128,0.0128,0.0071,0.0068,0.0065,0,0,0,0,0,-0.0188,-0.0198,-0.0191,-0.0189,-0.0163,-0.0146,-0.014,-0.0116,-0.0105,-0.0104,-0.0069,-0.0044,0.0034,0.0028,0.0039,0.004,0.0128,0.0128,0.0128,0.0073,0.0068,0.0065,0,0,0,0,0,0,-0.0212,-0.0195,-0.0186,-0.019,-0.0173,-0.014,-0.0139,-0.0121,-0.0093,-0.009,-0.0043,-0.0032,-0.0005,0.0027,0.0019,0.0067,0.0085,0.0088,0.0039,0.0036,0.0033,0.0019,0.0053,0,0,0,0,0,-0.0221,-0.0225,-0.0201,-0.0205,-0.0199,-0.017,-0.0161,-0.0145,-0.0116,-0.0104,-0.007,-0.003,0.0005,0.0026,0.006,0.0086,0.012,0.0096,0.0092,0.0089,0.0087,0.0137,0.0138,0.013,0.013,0.013,0,0,-0.0232,-0.0223,-0.0225,-0.0211,-0.0195,-0.0194,-0.0164,-0.0155,-0.015,-0.0097,-0.0081,-0.0043,0.0009,0.0036,0.0051,0.0063,0.0109,0.009,0.0086,0.0086,0.0138,0.0139,0.0139,0.013,0.013,0.013,0,0,-0.0257,-0.0248,-0.026,-0.025,-0.0234,-0.0215,-0.0216,-0.0187,-0.017,-0.0149,-0.0109,-0.0072,-0.0023,0.0016,0.0043,0.0043,0.0086,0.0053,0.0031,0.008,0.0081,0.0082,0.012,0.0125,0.0056,0.0056,0.0056,0,-0.0272,-0.0284,-0.026,-0.0268,-0.0267,-0.0229,-0.024,-0.0216,-0.018,-0.0167,-0.0152,-0.0073,-0.0031,0.0012,0.0013,0.0035,0.0066,0.0038,0.0074,0.0076,0.0079,0.0118,0.0124,0.0053,0.0053,0.0054,0.0054,0,-0.0303,-0.0315,-0.0321,-0.032,-0.0312,-0.0316,-0.0285,-0.0272,-0.0247,-0.0218,-0.0177,-0.0116,-0.0069,-0.0047,-0.0016,0.0022,0.0038,0.0059,0.008,0.0076,0.0118,0.0125,0.0049,0.005,0.0051,0.0052,0,0,-0.0331,-0.0343,-0.0346,-0.0362,-0.0342,-0.0342,-0.0331,-0.031,-0.0304,-0.0255,-0.0236,-0.0167,-0.0132,-0.0099,-0.005,-0.0001,0.0041,0.0031,0.0034,0.006,0.0142,0.0122,0.0129,0.0067,0.0068,0.0069,0.0162,0,-0.0365,-0.0402,-0.0392,-0.0424,-0.044,-0.0407,-0.0402,-0.0374,-0.0339,-0.031,-0.0233,-0.0197,-0.0151,-0.0128,-0.0074,0.0012,0.006,0.0014,0.015,0.0154,0.013,0.0136,0.0072,0.0168,0.017,0.0171,0.0172,0,-0.0398,-0.042,-0.0463,-0.0484,-0.0487,-0.0497,-0.0485,-0.0475,-0.0416,-0.0386,-0.0329,-0.0268,-0.0189,-0.0151,-0.0009,-0.0042,0.004,0.0111,0.0117,0.0124,0.0148,0.0178,0.0187,0.0186,0.0185,0.0184,0.0183,0,-0.0435,-0.047,-0.0511,-0.0517,-0.0528,-0.0541,-0.0541,-0.0501,-0.0495,-0.0432,-0.0413,-0.0312,-0.0258,-0.0144,-0.0002,-0.0004,0.0157,0.0174,0.0236,0.0235,0.0252,0.025,0.0274,0.0274,0.0274,0.0274,0.0273,0,-0.0472,-0.0506,-0.0538,-0.0561,-0.0608,-0.0592,-0.062,-0.0599,-0.0564,-0.0553,-0.046,-0.0419,-0.0252,-0.014,-0.0016,0.0129,0.0147,0.0231,0.0259,0.0224,0.0218,0.0257,0.0254,0.0277,0.0277,0.0276,0.0275,0,-0.0504,-0.0524,-0.0579,-0.0614,-0.0631,-0.0663,-0.0687,-0.0697,-0.0656,-0.0636,-0.0617,-0.0491,-0.0343,-0.0177,0.0022,0.0105,0.0251,0.03,0.0243,0.0266,0.03,0.0292,0.037,0.0371,0.0371,0.0371,0.0371,0,-0.0523,-0.0555,-0.0627,-0.0668,-0.0692,-0.0737,-0.0763,-0.0746,-0.0746,-0.0675,-0.0661,-0.0522,-0.0421,-0.0155,0.0011,0.0238,0.0272,0.0335,0.0323,0.0291,0.031,0.0303,0.0296,0.0371,0.0371,0.0371,0.0371,0,-0.0558,-0.0588,-0.0633,-0.0721,-0.0773,-0.0822,-0.0852,-0.086,-0.0821,-0.0792,-0.0679,-0.0534,-0.0366,-0.0157,0.0019,0.0182,0.0284,0.0336,0.0337,0.0327,0.0292,0.031,0.0303,0.0371,0.0371,0.0371,0.0371,0,-0.0581,-0.0624,-0.069,-0.0761,-0.0833,-0.0879,-0.0894,-0.0873,-0.0861,-0.077,-0.0733,-0.054,-0.0421,-0.0186,-0.0025,0.013,0.0168,0.0207,0.0216,0.0217,0.0141,0.0073,0.0109,0,0,0,0,0,-0.0597,-0.0647,-0.0723,-0.08,-0.0871,-0.0906,-0.0937,-0.0934,-0.09,-0.0825,-0.0773,-0.0609,-0.0352,-0.0236,-0.0083,-0.004,0.0176,0.0141,0.0222,0.0372,0.0372,0.0306,0,0,0,0,0,0,-0.0611,-0.0683,-0.0722,-0.0812,-0.0867,-0.0934,-0.0953,-0.0932,-0.0875,-0.0819,-0.0674,-0.0588,-0.0333,-0.0433,-0.0082,-0.0036,0.003,0.0268,0.027,0.0372,0.0372,0.0372,0.0304,0,0,0,0,0]}]]